Tracking 17925 objects as of 22-January-2017
HD Live streaming from Space Station
objects crossing your sky now

NAVSTAR 33 (USA 92)

Track NAVSTAR 33 (USA 92) now!
NAVSTAR 33 (USA 92) is classified as:


NORAD ID: 22700
Int'l Code: 1993-042A
Perigee: 21,194.8 km
Apogee: 21,245.1 km
Inclination: 55.7 °
Period: 760.2 minutes
Semi major axis: 27590 km
RCS: 3.4011 m2 (large)
Launch date: June 26, 1993
Source: United States (US)
Launch site: AIR FORCE EASTERN TEST RANGE (AFETR)
PRN:
Your satellite tracking list
Your tracking list is empty





NASA's NSSDC Master Catalog

Two Line Element Set (TLE):
1 22700U 93042A   17020.53108590 -.00000057  00000-0  00000+0 0  9992
2 22700  55.6820 289.1681 0009119 314.4057 200.4838  1.89431534172090
Source of the keplerian elements: AFSPC